Location: Clarks Summit,Pa.
(41.5000°N, 75.6000°W)
Time: 13:14:33
(UTC-05:00)

BlueWalker 3 - Pass Details

Date: 03 December 2022
Orbit: 499 x 517 km, 53.2° (Epoch: 28 January)

Event Time Altitude Azimuth Distance (km) Brightness Sun altitude
Rises 18:36:20 0° 310° (NW) 2,627 6.2 -22.5°
Reaches altitude 10° 18:39:04 10° 329° (NNW) 1,735 4.9 -23.0°
Enters shadow 18:40:24 15° 347° (NNW) 1,423 4.2 -23.2°
